User: anonymous   Login
Location: Unspecified
(0.0000°N, 0.0000°E)
Time: 07:12:52
(UTC+00:00)
Language:

DELFI C3 - Orbit

View from above orbital plane
View from above orbital plane
View from above satellite
View from above satellite

Ground track
Ground track

The orbit data is extracted from the following two-line orbital elements,

1 32789U 08021G   18347.73801681  .00000912  00000-0  65741-4 0  9996
2 32789  97.4909  37.8243 0013381  50.5342 309.7067 15.06519903578811
Epoch (UTC): 13 December 2018 17:42:44
Eccentricity: 0.0013381
inclination: 97.4909°
perigee height: 537 km
apogee height: 556 km
right ascension of ascending node: 37.8243°
argument of perigee: 50.5342°
revolutions per day: 15.06519903
mean anomaly at epoch: 309.7067°
orbit number at epoch: 57881

The dashed part of the orbit path shows where the satellite is in the earth's shadow,  

DLR